Weather in Pankovo

Russia / Tver Oblast     56°34′49″N   34°52′44″E
temp.,
°C
wind,
m/s
gust,
m/s
humid.,
%
clouds,
%
prec.,
mm/h
press.,
hPa
HPBL,
m
24 july, sat
sat2400:00+14nw276999 0.0 1010185
03:00+12nw3680100 0.1 1012160
06:00+13nnw2669100 0.0 1013222
09:00+15nnw3559100 0.0 1014575
12:00+20nnw353793 0.0 10152343
15:00+20wnw343521 0.0 10152110
18:00+20wnw554376 0.0 1016829
21:00+15wnw226754 0.0 101739
25 july, sun
sun2500:00+13w1168100 0.0 101915
03:00+14wsw2364100 0.0 101953
06:00+14w2366100 0.0 102078
09:00+19w11482 0.0 1021613
12:00+23e113413 0.0 10212291
15:00+24wnw013228 0.0 10212489
18:00+24se023469 0.0 10212054
21:00+18ssw246077 0.0 102291
26 july, mon
mon2600:00+17wsw2358100 0.0 102345
03:00+15sw346886 0.0 102357
06:00+16sw2364100 0.0 102488
09:00+18sw2461100 0.0 1024171
12:00+21ssw245330 0.0 1024399
15:00+24w354595 0.0 10231140
18:00+24w564795 0.0 10231228
21:00+17ne118192 0.6 102313
27 july, tue
tue2700:00+17sw2283100 0.2 102327
03:00+16sw368530 0.3 1023108
06:00+15wsw249224 0.8 102470
09:00+21sw237556 1.3 1023312
12:00+26sw23455 0.0 10221345
15:00+24ssw245593 0.0 1021119
18:00+24w4654100 0.0 1020511
21:00+18sw128332 0.2 102016
28 july, wed
wed2800:00+16ssw228789 0.1 102030
03:00+15ssw248878 0.1 101964
06:00+16ssw26875 0.0 1018135
09:00+24ssw475255 0.0 1017545
12:00+27ssw563991 0.0 10152068
15:00+26ssw5642100 0.0 10131794
18:00+17s2796100 2.3 1013263
21:00+17ese4129664 4.9 1010380